Total_Precipitation_Accumulation
0.00 0.00 0.00 0.00 0.00 0.00 0.00 0.00 0.00 0.00 0.00 0.00 0.00 0.00 0.00 0.00 0.00 0.00 0.00 0.00 0.00 0.00 0.00 0.00 0.00 0.00 0.00 0.00 0.00 0.00 0.00 0.00 0.01 0.00 0.00 0.00 0.00 0.00 0.00 0.00 0.00 0.00 0.00
0.00 0.00 0.00 0.00 0.00 0.00 0.00 0.00 0.00 0.00 0.00 0.00 0.00 0.00 0.00 0.00 0.00 0.00 0.00 0.00 0.00 0.00 0.00 0.00 0.00 0.00 0.00 0.00 0.00 0.00 0.00 0.00 0.00 0.00 0.00 0.00 0.00 0.00 0.00 0.00 0.00 0.00 0.00
0.00 0.00 0.00 0.00 0.00 0.00 0.00 0.00 0.00 0.00 0.00 0.00 0.00 0.00 0.00 0.00 0.00 0.00 0.00 0.00 0.00 0.00 0.00 0.00 0.00 0.00 0.00 0.00 0.00 0.00 0.00 0.00 0.00 0.00 0.00 0.00 0.00 0.00 0.00 0.00 0.00 0.00 0.00
0.00 0.00 0.00 0.00 0.00 0.00 0.00 0.00 0.00 0.00 0.00 0.00 0.00 0.00 0.00 0.00 0.00 0.00 0.00 0.00 0.00 0.00 0.00 0.00 0.00 0.00 0.00 0.00 0.00 0.00 0.00 0.01 0.01 0.01 0.00 0.00 0.00 0.00 0.00 0.00 0.00 0.00 0.00
0.00 0.00 0.00 0.00 0.00 0.00 0.00 0.00 0.00 0.00 0.00 0.00 0.00 0.00 0.00 0.00 0.00 0.00 0.00 0.00 0.00 0.00 0.00 0.00 0.00 0.00 0.00 0.00 0.00 0.00 0.01 0.02 0.03 0.02 0.02 0.01 0.00 0.00 0.00 0.00 0.00 0.00 0.00
0.00 0.00 0.00 0.00 0.00 0.00 0.00 0.00 0.00 0.00 0.00 0.00 0.00 0.00 0.00 0.00 0.00 0.00 0.00 0.00 0.00 0.00 0.00 0.00 0.00 0.00 0.00 0.00 0.00 0.01 0.02 0.04 0.05 0.04 0.03 0.02 0.01 0.01 0.00 0.00 0.00 0.01 0.01
0.00 0.00 0.00 0.00 0.00 0.00 0.00 0.00 0.00 0.00 0.00 0.00 0.00 0.00 0.00 0.00 0.00 0.00 0.01 0.01 0.01 0.01 0.00 0.00 0.00 0.00 0.00 0.00 0.00 0.01 0.01 0.02 0.03 0.04 0.04 0.02 0.01 0.01 0.01 0.02 0.02 0.02 0.01
0.00 0.00 0.00 0.00 0.00 0.00 0.00 0.00 0.00 0.00 0.00 0.00 0.00 0.00 0.00 0.00 0.00 0.01 0.01 0.02 0.02 0.02 0.01 0.01 0.01 0.00 0.00 0.01 0.01 0.02 0.02 0.01 0.01 0.02 0.03 0.02 0.01 0.02 0.03 0.05 0.06 0.05 0.02
0.00 0.00 0.00 0.00 0.00 0.00 0.00 0.00 0.00 0.00 0.00 0.00 0.00 0.00 0.00 0.00 0.00 0.01 0.02 0.04 0.04 0.02 0.01 0.01 0.02 0.01 0.01 0.02 0.05 0.05 0.03 0.02 0.01 0.02 0.03 0.04 0.04 0.06 0.07 0.13 0.14 0.12 0.07
0.00 0.00 0.00 0.00 0.00 0.00 0.00 0.00 0.00 0.00 0.00 0.00 0.00 0.00 0.00 0.00 0.00 0.01 0.02 0.04 0.04 0.02 0.01 0.02 0.02 0.03 0.03 0.05 0.10 0.10 0.08 0.03 0.03 0.04 0.06 0.06 0.05 0.06 0.06 0.08 0.09 0.12 0.10
0.00 0.00 0.00 0.00 0.00 0.00 0.00 0.00 0.00 0.00 0.00 0.00 0.00 0.00 0.00 0.00 0.00 0.01 0.02 0.04 0.05 0.05 0.04 0.03 0.02 0.03 0.05 0.08 0.12 0.14 0.10 0.08 0.13 0.15 0.15 0.14 0.12 0.10 0.09 0.08 0.06 0.07 0.09
0.01 0.01 0.00 0.00 0.00 0.00 0.00 0.00 0.00 0.01 0.01 0.00 0.00 0.00 0.00 0.00 0.00 0.01 0.02 0.05 0.06 0.10 0.08 0.04 0.04 0.05 0.08 0.12 0.16 0.16 0.13 0.18 0.26 0.26 0.23 0.18 0.14 0.11 0.08 0.07 0.07 0.06 0.06
0.01 0.01 0.01 0.02 0.02 0.02 0.02 0.03 0.03 0.03 0.03 0.02 0.02 0.02 0.01 0.01 0.01 0.02 0.04 0.06 0.08 0.10 0.08 0.07 0.09 0.11 0.15 0.18 0.19 0.19 0.22 0.29 0.31 0.26 0.18 0.11 0.07 0.07 0.10 0.15 0.18 0.17 0.15
0.02 0.02 0.03 0.04 0.05 0.05 0.06 0.07 0.08 0.08 0.09 0.10 0.09 0.08 0.07 0.06 0.05 0.06 0.11 0.18 0.20 0.19 0.16 0.16 0.17 0.21 0.27 0.28 0.26 0.28 0.31 0.29 0.24 0.19 0.14 0.11 0.11 0.16 0.21 0.25 0.29 0.29 0.32
0.03 0.03 0.03 0.04 0.06 0.08 0.09 0.10 0.11 0.12 0.15 0.23 0.26 0.27 0.28 0.22 0.17 0.23 0.33 0.40 0.38 0.33 0.34 0.39 0.37 0.35 0.38 0.35 0.33 0.33 0.31 0.30 0.26 0.24 0.25 0.26 0.24 0.24 0.24 0.24 0.26 0.29 0.33
0.04 0.03 0.03 0.04 0.05 0.06 0.07 0.08 0.10 0.12 0.15 0.23 0.28 0.32 0.31 0.28 0.33 0.44 0.48 0.48 0.45 0.42 0.51 0.52 0.39 0.33 0.29 0.26 0.27 0.27 0.27 0.29 0.27 0.28 0.31 0.30 0.28 0.26 0.28 0.28 0.30 0.30 0.30
0.04 0.04 0.04 0.04 0.05 0.05 0.05 0.07 0.08 0.10 0.12 0.15 0.18 0.21 0.24 0.27 0.34 0.42 0.50 0.57 0.56 0.51 0.53 0.40 0.31 0.29 0.28 0.27 0.28 0.28 0.27 0.27 0.29 0.34 0.36 0.34 0.33 0.32 0.31 0.31 0.32 0.32 0.31
0.03 0.03 0.04 0.05 0.05 0.05 0.06 0.06 0.08 0.10 0.13 0.13 0.13 0.15 0.19 0.24 0.32 0.41 0.52 0.70 0.70 0.51 0.34 0.25 0.26 0.29 0.31 0.32 0.32 0.31 0.30 0.30 0.32 0.34 0.35 0.33 0.32 0.34 0.34 0.31 0.28 0.28 0.28
0.03 0.03 0.04 0.04 0.05 0.05 0.06 0.07 0.09 0.11 0.12 0.13 0.15 0.17 0.19 0.23 0.31 0.38 0.49 0.60 0.46 0.33 0.23 0.23 0.29 0.35 0.36 0.35 0.33 0.31 0.30 0.28 0.27 0.30 0.32 0.32 0.32 0.34 0.33 0.28 0.27 0.27 0.29
0.04 0.04 0.05 0.07 0.08 0.07 0.08 0.09 0.11 0.13 0.14 0.14 0.14 0.14 0.22 0.31 0.36 0.35 0.37 0.36 0.34 0.30 0.25 0.27 0.35 0.40 0.39 0.37 0.34 0.32 0.32 0.30 0.29 0.30 0.29 0.29 0.30 0.32 0.32 0.30 0.29 0.30 0.29
0.10 0.09 0.09 0.11 0.12 0.12 0.13 0.14 0.15 0.16 0.16 0.15 0.14 0.15 0.27 0.31 0.24 0.22 0.29 0.34 0.35 0.32 0.29 0.29 0.34 0.37 0.36 0.35 0.32 0.31 0.30 0.29 0.27 0.26 0.26 0.26 0.27 0.29 0.28 0.29 0.30 0.30 0.31
0.14 0.14 0.15 0.18 0.19 0.21 0.22 0.22 0.22 0.22 0.21 0.20 0.19 0.23 0.30 0.28 0.24 0.24 0.26 0.30 0.32 0.32 0.31 0.31 0.32 0.34 0.35 0.33 0.31 0.29 0.27 0.25 0.23 0.23 0.24 0.24 0.25 0.25 0.25 0.26 0.27 0.28 0.28
0.14 0.15 0.17 0.19 0.21 0.23 0.24 0.24 0.24 0.23 0.23 0.22 0.23 0.26 0.26 0.22 0.20 0.20 0.22 0.25 0.27 0.30 0.31 0.31 0.30 0.30 0.29 0.27 0.26 0.24 0.22 0.21 0.21 0.21 0.22 0.22 0.21 0.21 0.21 0.23 0.24 0.24 0.24
0.13 0.14 0.15 0.16 0.18 0.20 0.20 0.21 0.22 0.22 0.23 0.23 0.23 0.20 0.19 0.20 0.21 0.23 0.24 0.25 0.25 0.24 0.24 0.23 0.22 0.21 0.19 0.18 0.17 0.17 0.18 0.19 0.20 0.21 0.19 0.18 0.17 0.17 0.18 0.21 0.23 0.24 0.24
0.13 0.13 0.13 0.14 0.15 0.17 0.18 0.19 0.20 0.21 0.21 0.20 0.19 0.19 0.21 0.22 0.21 0.21 0.21 0.20 0.19 0.17 0.16 0.15 0.14 0.14 0.13 0.12 0.12 0.13 0.14 0.15 0.15 0.16 0.16 0.15 0.15 0.15 0.16 0.18 0.21 0.23 0.25
0.12 0.12 0.13 0.13 0.14 0.14 0.15 0.15 0.16 0.16 0.16 0.16 0.17 0.18 0.19 0.19 0.18 0.17 0.16 0.15 0.14 0.12 0.11 0.11 0.11 0.10 0.10 0.10 0.11 0.11 0.12 0.14 0.14 0.13 0.12 0.12 0.12 0.12 0.12 0.14 0.17 0.19 0.22